This is the latest recevied weather packets stored in our database for station/object KK4MOR. If no packets are shown the sender has not sent any weather packets the latest 10 day(s).
| Time | Temp. | Humidity | Pressure | Rain* | Wind** | Luminosity | Snow |
|---|---|---|---|---|---|---|---|
| 1787974206 | 20° C | 90% | 1015.6 hPa | 0 mm | - | - | - |
| 1787973310 | 20° C | 90% | 1015.7 hPa | 0 mm | - | - | - |
| 1787972404 | 20.56° C | 90% | 1015.5 hPa | 0 mm | - | - | - |
| 1787971511 | 20.56° C | 89% | 1015.3 hPa | 0 mm | - | - | - |
| 1787970603 | 20.56° C | 89% | 1015.3 hPa | 0 mm | - | - | - |
| 1787969703 | 21.11° C | 89% | 1015.1 hPa | 0 mm | - | - | - |
| 1787968802 | 21.11° C | 88% | 1014.9 hPa | 0 mm | - | - | - |
| 1787967902 | 21.67° C | 87% | 1014.7 hPa | 0 mm | - | - | - |
| 1787967002 | 21.67° C | 86% | 1014.5 hPa | 0 mm | - | - | - |
| 1787966161 | 22.22° C | 85% | 1014.3 hPa | 0 mm | - | - | - |
| 1787965264 | 22.78° C | 85% | 1014.2 hPa | 0 mm | - | - | - |
| 1787964360 | 23.33° C | 84% | 1014.1 hPa | 0 mm | - | - | - |
| 1787963460 | 23.89° C | 82% | 1013.9 hPa | 0 mm | - | - | - |
| 1787962564 | 24.44° C | 81% | 1014 hPa | 0 mm | - | - | - |
| 1787961673 | 25° C | 78% | 1013.7 hPa | 0 mm | - | - | - |
| 1787960763 | 26.11° C | 75% | 1013.7 hPa | 0 mm | - | - | - |
| 1787959863 | 27.22° C | 71% | 1013.6 hPa | 0 mm | - | - | - |
| 1787958963 | 28.89° C | 65% | 1013.5 hPa | 0 mm | - | - | - |
| 1787958059 | 29.44° C | 57% | 1013.4 hPa | 0 mm | - | - | - |
| 1787957163 | 29.44° C | 58% | 1013.4 hPa | 0 mm | - | - | - |
| 1787956255 | 29.44° C | 57% | 1013.3 hPa | 0 mm | - | - | - |
| 1787955357 | 30° C | 57% | 1013.3 hPa | 0 mm | - | - | - |
| 1787954454 | 30° C | 56% | 1013.3 hPa | 0 mm | - | - | - |
| 1787953554 | 30° C | 55% | 1013.4 hPa | 0 mm | - | - | - |
| 1787952655 | 30.56° C | 54% | 1013.4 hPa | 0 mm | - | - | - |
* Rain latest hour (hover to see other rain measurements)
** Current wind speed in m/s (hover to see current wind gust speed)